User: anonymous   Login
Location: Caltech
(34.1382°N, 118.1253°W)
Time: 02:15:40
(UTC-08:00)
Language:

Uribyol 2 - Orbit

View from above orbital plane
View from above orbital plane
View from above satellite
View from above satellite

Ground track
Ground track

The orbit data is extracted from the following two-line orbital elements,

1 22828U 93061F   15024.10600703  .00000139  00000-0  70700-4 0  8169
2 22828 098.6776 333.7257 0009282 339.2989 020.7816 14.30434105 80828
Epoch (UTC): 24 January 2015 02:32:39
Eccentricity: 0.0009282
inclination: 98.6776°
perigee height: 783 km
apogee height: 797 km
right ascension of ascending node: 333.7257°
argument of perigee: 339.2989°
revolutions per day: 14.30434105
mean anomaly at epoch: 20.7816°
orbit number at epoch: 8082

The dashed part of the orbit path shows where the satellite is in the earth's shadow,  

DLR